FW0232 Weather Reports


Display with metric or nautical units.
time (UTC)temp
F
wind
direction
speed
MPH
gust
MPH
rain 1hr
in
rain 24hr
in
rain mn
in
humidity
%
barometer
mb
20260507050903 57 52 0.0 2.0 0.00 0.00 0.00 80 1018.7
20260507050003 57 52 0.0 2.0 0.00 0.00 0.00 80 1018.7
20260507045403 58 32 1.0 2.0 0.00 0.00 0.00 80 1018.7
20260507044503 58 342 1.0 4.0 0.00 0.00 0.00 80 1018.7
20260507043603 58 358 2.0 5.0 0.00 0.00 0.00 80 1018.7
20260507042703 58 336 3.0 7.0 0.00 0.00 0.00 79 1018.6
20260507041803 58 341 3.0 7.0 0.00 0.00 0.00 79 1018.5
20260507041114 58 349 3.0 7.0 0.00 0.00 0.00 79 1018.5
20260507040003 59 338 3.0 6.0 0.00 0.00 0.00 78 1018.3
20260507035613 59 332 3.0 7.0 0.00 0.00 0.00 78 1018.2
20260507034714 60 333 2.0 7.0 0.00 0.00 0.00 78 1018.2
20260507033603 60 350 3.0 6.0 0.00 0.00 0.00 78 1018.0
20260507032913 60 351 2.0 8.0 0.00 0.00 0.00 77 1017.9
20260507031803 61 324 2.0 4.0 0.00 0.00 0.00 77 1017.8
20260507031113 61 348 2.0 5.0 0.00 0.00 0.00 77 1017.6
20260507030213 62 344 1.0 7.0 0.00 0.00 0.00 76 1017.6
20260507025614 62 339 1.0 6.0 0.00 0.00 0.00 76 1017.5
20260507024503 63 338 1.0 5.0 0.00 0.00 0.00 76 1017.4
20260507023603 63 356 1.0 4.0 0.00 0.00 0.00 75 1017.2
20260507022703 64 319 1.0 7.0 0.00 0.00 0.00 74 1017.2
20260507021803 64 335 2.0 3.0 0.00 0.00 0.00 75 1017.2
20260507021113 64 322 1.0 4.0 0.00 0.00 0.00 74 1017.1
20260507020003 64 329 2.0 5.0 0.00 0.00 0.00 74 1017.2
20260507015614 64 333 2.0 5.0 0.00 0.00 0.00 73 1017.2
20260507014503 66 320 2.0 7.0 0.00 0.00 0.00 71 1017.3
20260507013603 66 347 2.0 6.0 0.00 0.00 0.00 71 1017.3
20260507012703 67 341 2.0 8.0 0.00 0.00 0.00 71 1017.2
20260507011803 68 323 3.0 6.0 0.00 0.00 0.00 72 1017.2
20260507010214 68 7 2.0 6.0 0.00 0.00 0.00 70 1017.1
20260507005403 68 5 2.0 8.0 0.00 0.00 0.00 74 1017.1
20260507004503 68 68 3.0 8.0 0.00 0.00 0.00 73 1017.1
20260507003603 68 69 3.0 7.0 0.00 0.00 0.00 71 1017.1
20260507002914 68 39 3.0 7.0 0.00 0.00 0.00 71 1017.0
20260507001803 69 63 1.0 6.0 0.00 0.00 0.00 70 1017.0
20260507000903 69 49 1.0 4.0 0.00 0.00 0.00 71 1017.0
20260507000003 69 39 2.0 2.0 0.00 0.00 0.00 70 1017.0
20260506235403 70 40 2.0 4.0 0.00 0.00 0.00 69 1016.9
20260506234503 70 49 2.0 4.0 0.00 0.00 0.00 69 1016.9
20260506233814 70 56 2.0 4.0 0.00 0.00 0.00 69 1016.9
20260506232703 70 62 2.0 6.0 0.00 0.00 0.00 68 1016.9
20260506231803 69 63 3.0 4.0 0.00 0.00 0.00 69 1017.0
20260506231114 70 62 4.0 8.0 0.00 0.00 0.00 68 1017.0
20260506230003 70 64 2.0 9.0 0.00 0.00 0.00 68 1017.2
20260506225403 70 86 1.0 7.0 0.00 0.00 0.00 69 1017.2
20260506224714 70 125 1.0 2.0 0.00 0.00 0.00 67 1017.3
20260506223603 70 51 2.0 7.0 0.00 0.00 0.00 68 1017.4
20260506222703 70 36 3.0 7.0 0.00 0.00 0.00 68 1017.4
20260506221803 70 62 3.0 8.0 0.00 0.00 0.00 69 1017.5
20260506220903 69 69 4.0 7.0 0.00 0.00 0.00 68 1017.6
20260506220003 69 77 3.0 7.0 0.00 0.00 0.00 72 1017.6
20260506215403 69 68 2.0 7.0 0.00 0.00 0.00 70 1017.6
20260506214503 68 84 1.0 7.0 0.00 0.00 0.00 72 1017.5
20260506213813 68 146 2.0 7.0 0.00 0.00 0.00 72 1017.5
20260506212703 67 174 2.0 8.0 0.00 0.00 0.00 75 1017.7
20260506211803 66 92 2.0 5.0 0.00 0.00 0.00 74 1017.8
20260506211113 66 200 3.0 9.0 0.00 0.00 0.00 75 1018.0
20260506210004 66 81 2.0 7.0 0.00 0.00 0.00 73 1018.1
20260506205403 67 72 2.0 6.0 0.00 0.00 0.00 74 1018.1
20260506204503 66 189 2.0 7.0 0.00 0.00 0.00 78 1018.1
20260506203603 65 185 2.0 7.0 0.00 0.00 0.00 78 1018.0
20260506202703 65 188 2.0 5.0 0.00 0.00 0.00 77 1017.9
20260506201803 65 182 3.0 9.0 0.00 0.00 0.00 78 1018.0
20260506200903 65 146 2.0 6.0 0.00 0.00 0.00 76 1018.1
20260506200003 64 180 1.0 9.0 0.00 0.00 0.00 77 1018.1
20260506195403 64 175 1.0 3.0 0.00 0.00 0.00 78 1018.2
20260506194503 63 180 1.0 3.0 0.00 0.00 0.00 78 1018.4
20260506193603 63 175 1.0 4.0 0.00 0.00 0.00 79 1018.5
20260506192703 63 169 1.0 7.0 0.00 0.00 0.00 80 1018.5
20260506191803 63 62 2.0 6.0 0.00 0.00 0.00 79 1018.4
20260506190903 62 71 2.0 6.0 0.00 0.00 0.00 80 1018.3
20260506190003 62 131 2.0 5.0 0.00 0.00 0.00 81 1018.3
20260506185613 62 152 3.0 5.0 0.00 0.00 0.00 81 1018.3
20260506184503 62 207 3.0 8.0 0.00 0.00 0.00 80 1018.3
20260506183814 62 187 4.0 8.0 0.00 0.00 0.00 80 1018.2
20260506182704 61 196 5.0 9.0 0.00 0.00 0.00 81 1018.3
20260506181803 61 192 4.0 12.0 0.00 0.00 0.00 82 1018.4
20260506181114 60 200 3.0 10.0 0.00 0.00 0.00 82 1018.4
20260506180004 60 183 4.0 9.0 0.00 0.00 0.00 83 1018.4
20260506175403 60 193 4.0 10.0 0.00 0.00 0.00 83 1018.3
20260506174503 59 187 3.0 10.0 0.00 0.00 0.00 83 1018.4
20260506173814 59 192 4.0 7.0 0.00 0.00 0.00 83 1018.4
20260506172703 59 184 4.0 8.0 0.00 0.00 0.00 84 1018.2
20260506171803 59 184 3.0 7.0 0.00 0.00 0.00 85 1018.1
20260506171114 58 184 3.0 5.0 0.00 0.00 0.00 85 1018.1
20260506170004 58 185 1.0 5.0 0.00 0.00 0.00 85 1018.2
20260506165403 58 192 1.0 4.0 0.00 0.00 0.00 86 1018.2
20260506164503 58 192 3.0 4.0 0.00 0.00 0.00 86 1018.3
20260506163603 58 185 2.0 6.0 0.00 0.00 0.00 86 1018.2
20260506162703 58 210 2.0 5.0 0.00 0.00 0.00 86 1018.2
20260506161803 58 186 2.0 5.0 0.00 0.00 0.00 86 1018.1
20260506161113 58 176 1.0 5.0 0.00 0.00 0.00 87 1018.0
20260506160003 58 188 2.0 9.0 0.00 0.00 0.00 87 1017.9
20260506155403 57 203 2.0 9.0 0.00 0.00 0.00 87 1017.7
20260506154503 57 186 3.0 8.0 0.00 0.00 0.00 88 1017.8
20260506153603 57 175 1.0 8.0 0.00 0.00 0.00 88 1017.2
20260506152703 57 183 1.0 3.0 0.00 0.00 0.00 88 1017.7
20260506151803 57 183 2.0 4.0 0.00 0.00 0.00 88 1018.1
20260506150903 57 183 2.0 4.0 0.00 0.00 0.00 88 1018.2
20260506150004 57 183 1.0 4.0 0.00 0.00 0.00 88 1018.1
20260506145614 57 183 1.0 4.0 0.00 0.00 0.00 88 1018.1
20260506144713 57 183 1.0 4.0 0.00 0.00 0.00 88 1018.0
20260506143603 57 183 2.0 3.0 0.00 0.00 0.00 87 1017.8
20260506142703 57 185 1.0 5.0 0.00 0.00 0.00 87 1017.7
20260506141803 57 154 1.0 5.0 0.00 0.00 0.00 87 1017.4
20260506140903 57 55 1.0 5.0 0.00 0.00 0.00 88 1017.1
20260506140003 57 54 0.0 4.0 0.00 0.00 0.00 88 1017.2
20260506135403 57 54 1.0 1.0 0.00 0.00 0.00 88 1017.1
20260506134504 57 54 0.0 2.0 0.00 0.00 0.00 88 1017.1
20260506133603 57 54 0.0 2.0 0.00 0.00 0.00 88 1017.0
20260506132703 57 54 0.0 3.0 0.00 0.00 0.00 88 1016.9
20260506131803 57 0 0.0 0.0 0.00 0.00 0.00 88 1016.9
20260506130903 57 0 0.0 0.0 0.00 0.00 0.00 88 1016.8
20260506130003 57 0 0.0 0.0 0.00 0.00 0.00 88 1016.6
20260506125403 57 0 0.0 0.0 0.00 0.00 0.00 88 1016.7
20260506124503 57 0 0.0 0.0 0.00 0.00 0.00 88 1016.7
20260506123603 57 0 0.0 0.0 0.00 0.00 0.00 89 1016.5
20260506122703 57 0 0.0 0.0 0.00 0.00 0.00 89 1016.5
20260506121803 57 0 0.0 0.0 0.00 0.00 0.00 89 1016.7
20260506120903 57 0 0.0 0.0 0.00 0.00 0.00 89 1016.6
20260506120003 57 0 0.0 0.0 0.00 0.00 0.00 89 1016.5
20260506115403 57 0 0.0 0.0 0.00 0.00 0.00 89 1016.5
20260506114503 57 54 1.0 2.0 0.00 0.00 0.00 89 1016.4
20260506113813 57 54 0.0 2.0 0.00 0.00 0.00 89 1016.3
20260506112703 57 0 0.0 0.0 0.00 0.00 0.00 89 1016.2
20260506111803 57 0 0.0 0.0 0.00 0.00 0.00 89 1016.1
20260506110903 57 0 0.0 0.0 0.00 0.00 0.00 89 1016.1
20260506110004 57 0 0.0 0.0 0.00 0.00 0.00 89 1015.9
20260506105403 57 0 0.0 0.0 0.00 0.00 0.00 89 1015.8
20260506104503 57 0 0.0 0.0 0.00 0.00 0.00 89 1015.7
20260506103603 57 0 0.0 0.0 0.00 0.00 0.00 89 1015.5
20260506102703 58 0 0.0 0.0 0.00 0.00 0.00 89 1015.5
20260506101803 58 0 0.0 0.0 0.00 0.00 0.00 89 1015.4
20260506101114 58 0 0.0 0.0 0.00 0.00 0.00 90 1015.2
20260506100214 58 0 0.0 0.0 0.00 0.00 0.00 90 1015.3
20260506095403 58 0 0.0 0.0 0.00 0.00 0.00 90 1015.2
20260506094503 58 0 0.0 0.0 0.00 0.00 0.00 90 1015.2
20260506093603 58 0 0.0 0.0 0.00 0.00 0.00 90 1015.1
20260506092703 58 0 0.0 0.0 0.00 0.00 0.00 90 1015.0
20260506091803 58 0 0.0 0.0 0.00 0.00 0.00 89 1015.0
20260506091112 58 0 0.0 0.0 0.00 0.00 0.00 89 1014.9
20260506090003 58 0 0.0 0.0 0.00 0.00 0.00 89 1014.9
20260506085403 58 0 0.0 0.0 0.00 0.00 0.00 89 1015.0
20260506084713 58 0 0.0 0.0 0.00 0.00 0.00 89 1014.9
20260506083814 58 0 0.0 0.0 0.00 0.00 0.00 89 1014.9
20260506082703 58 0 0.0 0.0 0.00 0.00 0.00 88 1015.0
20260506082013 58 0 0.0 0.0 0.00 0.00 0.00 89 1014.9
20260506080903 58 0 0.0 0.0 0.00 0.00 0.00 89 1014.9
20260506072703 58 0 0.0 0.0 0.00 0.00 0.00 89 1014.5
20260506071803 58 0 0.0 0.0 0.00 0.00 0.00 89 1014.5
20260506071114 58 0 0.0 0.0 0.00 0.00 0.00 89 1014.5
20260506061803 58 0 0.0 0.0 0.00 0.00 0.00 89 1014.2
20260506060903 58 0 0.0 0.0 0.00 0.00 0.00 89 1014.2
20260506060213 58 0 0.0 0.0 0.00 0.00 0.00 89 1014.2